Vorticity
3 4 4 4 5 6 6 6 8 5 7 11 10 10 7 9 8 7 9 3 6 9 4 6 7 3 4 8 6 7 7 5 1 0 7 8 8 7 7 7 3 6 6 4 5 8 7 4 4 5 6 6 6 5 6 7 6 5 4 4 3 4 5 5 4 5 4 3 5 6 7 6 5 4 4 6 6 6 6 5 4 5 4 5 5 4 5 3 4 4 2 6 7 6 4 5 6
1 3 3 5 6 7 6 6 8 5 6 12 11 7 6 9 8 7 9 6 7 6 5 4 5 7 5 6 7 7 6 9 7 2 6 8 8 6 7 8 5 6 5 4 5 8 8 6 5 5 5 5 7 7 8 7 5 5 5 5 4 5 5 5 4 5 6 4 6 6 6 6 5 5 4 6 6 7 6 6 5 4 5 5 4 4 4 3 5 3 2 7 10 6 3 5 3
5 5 4 5 7 6 6 6 8 9 10 10 11 8 8 9 6 7 6 6 8 3 4 1 -0 6 6 6 5 7 5 6 7 4 7 8 8 7 6 6 5 5 5 3 5 9 7 6 5 6 6 4 6 7 7 6 4 6 6 6 4 5 5 4 4 6 6 5 6 5 6 6 6 6 5 5 6 7 7 8 7 6 6 5 6 5 5 4 3 2 1 3 9 11 5 2 2
7 8 8 8 8 8 10 11 9 12 13 6 5 7 7 7 4 7 8 7 9 4 3 2 5 6 5 9 7 8 5 3 7 6 8 8 7 9 7 6 6 5 4 4 6 9 7 6 5 6 7 5 6 6 7 7 6 7 7 7 5 5 5 5 4 6 6 5 5 4 6 6 7 7 6 5 5 5 7 9 9 9 8 7 7 5 5 4 3 3 2 1 6 13 8 1 0
5 8 12 11 12 12 12 11 8 9 13 10 5 9 11 7 6 10 9 7 9 5 2 3 8 6 3 9 8 8 4 5 10 6 6 7 7 9 7 5 6 6 5 4 7 8 7 5 4 5 6 5 6 6 7 7 7 6 8 8 6 5 5 6 5 6 7 6 4 3 5 6 7 7 6 5 4 4 4 6 7 9 8 10 8 7 6 4 6 4 2 4 5 8 8 5 0
4 9 14 12 11 12 10 8 10 7 8 12 4 10 16 5 5 12 9 7 6 2 3 6 5 5 5 8 7 5 4 8 9 4 5 6 7 8 6 5 6 6 5 5 7 8 7 6 5 5 5 6 6 6 6 7 7 6 8 8 7 7 5 6 6 5 6 6 4 3 4 6 7 7 7 6 5 5 4 3 4 6 7 9 10 10 8 6 6 4 5 4 5 5 5 9 3
1 3 7 10 7 8 9 5 8 4 3 9 5 8 9 0 2 9 12 9 5 3 4 5 4 7 7 7 9 4 4 10 7 4 5 6 7 8 7 5 6 7 5 5 7 8 7 6 6 6 5 6 5 6 7 6 7 7 7 7 7 7 5 6 6 5 5 6 5 3 3 4 5 6 7 6 5 5 6 6 4 5 5 7 11 12 10 10 6 5 8 4 6 5 2 12 7
2 4 3 6 6 4 6 6 7 7 6 8 7 6 4 3 4 5 10 6 1 4 4 3 6 9 7 6 9 5 6 10 7 7 9 8 7 7 7 5 6 7 5 5 6 8 7 6 7 7 6 7 5 6 8 6 7 9 6 4 8 7 4 5 6 5 5 5 4 4 4 5 5 5 5 5 5 5 6 7 6 7 7 7 8 11 11 10 9 7 7 5 6 3 7 17 8
3 6 7 6 7 6 4 6 8 8 8 8 8 7 5 5 4 3 5 7 7 4 3 4 5 6 7 6 4 6 10 10 8 10 10 8 8 7 7 6 5 6 6 7 7 7 8 6 6 7 7 8 7 6 9 8 6 9 7 4 8 8 6 5 5 5 4 4 6 4 5 5 5 4 5 5 5 7 8 6 6 7 11 11 7 9 12 10 10 9 7 5 3 7 19 17 4
4 3 7 9 5 6 6 4 5 8 8 8 8 9 9 6 10 12 6 11 14 5 3 7 6 3 7 6 2 6 9 8 9 12 10 8 9 8 8 6 5 6 5 6 7 7 7 8 6 6 6 7 8 6 7 9 7 7 7 7 9 7 6 6 5 6 4 6 7 6 5 2 5 8 7 7 6 5 5 5 6 6 9 13 9 4 8 11 10 10 10 3 3 14 20 10 2
8 8 7 10 4 3 7 5 4 6 10 10 8 10 12 10 14 17 9 12 14 5 2 5 6 4 5 4 2 6 6 7 9 11 11 8 8 9 8 6 4 5 5 6 7 6 7 7 7 6 6 6 8 6 6 8 9 9 7 8 9 5 6 7 5 6 6 6 5 6 6 1 5 9 7 8 8 5 3 5 7 7 8 12 12 3 3 10 10 12 11 3 9 15 9 3 4
3 9 7 9 6 3 6 5 5 5 8 11 10 9 11 9 10 11 6 11 18 17 9 4 7 6 3 3 5 6 3 6 8 9 12 10 9 8 8 7 5 5 5 6 6 6 7 7 7 7 7 6 6 7 6 6 8 10 9 8 9 5 5 7 5 6 6 6 4 6 8 2 4 6 6 9 9 8 7 6 6 9 13 14 15 8 2 8 10 12 10 7 12 9 3 4 6
6 8 8 9 7 5 8 5 5 6 7 11 12 8 7 7 7 10 7 9 16 18 12 4 5 4 2 3 7 7 1 4 7 8 11 10 9 6 6 7 6 6 6 6 5 6 7 7 6 6 7 6 5 7 7 7 7 8 10 9 10 8 5 7 7 6 6 6 4 6 7 4 5 5 6 9 8 8 8 10 10 8 11 12 14 11 4 7 10 12 15 15 11 4 3 6 5
11 7 4 5 6 4 7 5 5 7 6 9 12 9 9 9 8 10 8 9 11 11 9 4 4 3 3 3 1 5 5 3 4 6 9 9 8 7 6 6 4 6 6 5 4 6 7 8 8 6 7 7 7 8 7 7 7 7 8 8 9 9 6 8 9 7 6 6 5 7 7 6 7 6 8 8 6 7 7 14 16 9 7 10 15 15 8 9 12 15 21 17 8 4 4 5 6
8 7 1 -3 2 1 3 5 6 9 6 7 9 8 10 10 9 9 7 9 10 11 9 5 7 5 5 5 2 6 7 4 1 3 9 8 7 6 6 6 5 6 6 4 4 5 6 6 8 8 8 8 8 9 8 7 7 7 7 8 8 9 9 9 8 6 6 6 5 6 6 5 7 7 6 6 5 7 6 10 15 11 7 9 15 16 11 11 14 16 16 10 5 5 5 5 6
7 10 6 -2 1 0 2 4 7 9 7 6 6 6 9 8 8 8 7 8 10 11 11 8 9 7 6 7 8 6 2 4 4 3 9 7 6 7 5 5 5 6 5 4 5 5 6 6 7 8 8 9 9 8 7 7 8 8 8 7 7 6 7 9 7 7 6 5 5 5 5 5 7 6 5 6 6 7 6 7 13 13 10 12 15 15 13 12 12 10 6 4 5 6 6 6 6
5 8 6 0 1 0 3 5 6 8 6 7 7 5 6 7 6 7 7 7 8 8 11 11 8 11 12 9 9 4 -0 6 7 5 8 6 7 8 6 5 4 6 5 4 5 5 6 6 7 8 9 9 10 8 6 8 8 8 9 6 6 6 5 6 6 7 6 5 6 5 5 4 6 8 7 6 5 5 5 6 10 11 13 16 14 13 13 12 8 5 3 5 5 5 7 7 7
5 5 1 1 2 2 7 7 7 8 6 8 8 6 5 5 5 6 6 7 9 8 11 13 8 11 14 10 9 7 5 7 7 5 6 6 7 8 8 6 6 5 6 5 4 5 6 5 7 8 9 8 9 10 8 9 7 6 8 7 7 9 8 7 6 6 5 6 7 5 4 5 6 8 10 8 6 6 3 7 10 9 15 14 12 14 12 9 6 5 5 6 5 7 9 7 7
7 3 -0 2 3 6 11 8 10 9 7 8 8 8 8 8 8 6 4 5 9 9 8 10 9 8 6 7 9 7 6 5 7 6 3 7 7 8 8 6 9 7 5 6 4 5 6 5 7 8 9 8 7 10 10 10 8 7 8 8 6 7 8 7 7 6 6 7 7 5 4 6 7 7 10 9 7 6 5 10 8 4 11 12 12 14 8 6 7 6 6 6 6 9 10 8 7
4 2 2 3 2 7 10 6 8 7 6 10 9 9 9 9 10 7 4 3 7 10 7 4 8 11 8 9 12 8 5 4 7 5 2 8 10 9 9 7 10 9 6 7 6 6 6 6 7 8 9 8 7 8 10 9 9 8 8 8 7 6 6 6 7 6 6 7 6 5 6 7 6 8 9 5 5 7 8 15 9 -0 8 13 12 9 5 7 8 7 7 6 6 8 9 8 7
7 10 4 1 4 6 6 5 5 6 7 9 9 10 10 9 10 9 6 4 6 9 6 3 4 10 12 10 11 10 9 8 9 8 7 8 8 8 8 8 8 8 8 8 7 6 6 6 5 9 11 9 8 8 9 9 9 9 7 7 7 7 6 5 6 6 6 7 7 6 8 9 6 8 6 -0 5 8 9 19 16 5 8 12 9 5 5 7 6 7 7 7 7 6 7 7 5
16 17 2 -2 4 4 6 6 3 8 9 5 5 10 13 10 8 9 11 10 10 9 7 6 1 4 10 9 10 12 13 13 9 10 8 5 6 7 5 5 4 6 8 7 7 6 6 7 6 8 10 9 9 9 9 9 9 9 8 7 7 6 4 4 5 6 7 7 8 7 10 12 7 6 3 0 6 9 10 16 17 12 11 10 6 4 6 7 6 8 7 7 8 7 7 5 4
15 10 0 3 5 2 6 5 4 10 9 3 0 5 13 13 9 11 15 12 10 9 8 7 2 3 7 7 11 12 11 11 11 11 8 9 10 6 3 4 4 5 7 6 5 5 5 7 7 7 7 7 7 8 8 9 10 10 11 8 6 6 5 4 5 6 6 7 9 8 9 10 8 6 2 5 7 8 13 12 13 14 11 7 4 5 7 6 7 7 7 7 9 9 6 4 5
12 6 2 8 7 3 3 1 2 7 8 6 4 4 10 13 12 12 12 10 9 9 8 4 4 6 4 9 15 9 6 8 11 9 4 10 9 3 5 6 4 4 5 4 3 4 5 6 7 6 4 3 3 5 6 8 9 10 12 10 6 7 7 6 5 6 5 6 11 11 9 7 9 9 4 9 9 7 13 11 12 12 8 5 4 7 8 6 7 7 7 8 10 10 7 5 4
7 4 5 9 11 9 2 -0 -1 0 4 7 10 9 9 11 10 8 7 8 8 9 11 7 4 6 4 13 16 5 5 10 11 8 6 9 5 5 8 4 4 7 7 6 3 4 5 5 6 7 4 0 1 3 4 5 7 10 11 11 10 8 7 6 6 7 5 6 12 17 18 12 10 8 6 12 9 6 10 12 12 9 5 6 6 8 7 7 7 7 10 8 9 10 9 7 3
3 6 10 7 10 8 0 2 -2 -4 3 7 13 10 4 6 7 7 7 7 8 8 13 13 7 8 7 13 14 6 6 6 9 10 10 13 6 5 5 3 7 9 9 8 7 7 7 6 5 7 5 1 1 1 3 4 4 7 10 12 12 10 9 7 6 8 7 8 12 18 26 23 13 7 9 13 8 5 9 14 11 5 5 7 8 9 7 8 8 10 12 8 7 7 10 9 2
3 9 10 0 3 1 -6 0 -2 -2 5 8 15 10 0 6 10 8 4 6 13 12 12 11 7 9 9 12 12 10 10 5 8 8 4 9 9 6 5 6 9 6 5 5 6 11 9 8 7 6 6 3 3 1 2 4 4 5 8 12 12 11 9 6 6 8 7 10 10 13 24 26 16 9 10 10 7 7 11 14 9 3 6 6 7 8 7 8 9 10 12 9 7 6 10 11 3
-1 5 6 3 6 0 -7 -2 -0 2 4 6 17 12 3 10 12 11 7 6 14 13 12 9 3 9 11 13 12 11 14 9 10 11 5 8 9 9 9 7 8 6 5 5 9 14 9 5 5 5 6 4 4 3 3 5 5 4 5 11 12 10 9 6 7 8 7 11 9 7 15 18 15 12 10 8 7 11 13 12 7 4 7 6 6 7 6 8 8 9 10 10 8 7 11 10 5
1 5 5 4 5 5 -0 -0 4 2 -2 5 16 7 5 13 9 20 19 2 8 12 11 8 2 7 9 9 11 11 15 10 10 14 10 10 10 10 12 5 2 4 4 5 8 13 15 12 6 3 4 4 6 6 5 5 5 5 4 8 12 10 9 7 7 9 8 9 10 8 9 10 11 11 9 9 9 12 11 8 6 5 6 6 6 6 6 8 8 10 10 10 11 12 12 7 6
7 5 4 1 4 9 5 5 6 -0 -2 6 9 -1 4 12 12 31 24 -7 5 15 5 5 5 8 8 6 9 12 14 12 13 15 9 8 9 9 13 9 7 9 7 5 3 4 12 20 18 12 8 5 4 4 4 5 5 5 4 5 10 10 10 9 8 10 9 8 11 10 6 6 9 8 7 11 12 11 9 7 6 5 5 5 6 5 6 8 9 10 11 11 13 12 11 7 7
3 0 -3 -0 5 6 4 7 1 -3 3 3 1 -2 4 13 17 27 13 -9 8 18 5 5 6 9 12 8 8 13 16 14 13 15 11 8 9 7 9 10 10 11 9 7 6 2 4 15 22 21 16 7 1 3 4 4 5 5 5 4 8 9 9 10 10 9 9 10 12 12 7 4 9 8 6 11 12 10 8 7 7 5 4 5 6 5 6 10 10 10 12 14 13 7 6 9 9
1 4 -4 2 5 -2 1 4 0 4 7 0 -2 0 6 12 13 14 10 3 8 16 15 9 7 11 15 10 5 8 12 14 11 11 15 14 11 8 6 9 9 8 9 9 9 8 6 8 13 15 15 11 5 6 5 3 5 5 4 5 6 9 9 9 10 9 9 10 11 14 10 5 10 10 6 11 12 10 8 8 8 5 4 6 6 5 7 11 10 9 12 14 12 7 5 8 8
6 4 -1 7 4 -2 1 -2 1 9 3 2 -0 -3 7 10 7 9 12 9 8 19 18 4 5 12 14 12 7 4 5 10 11 8 14 15 12 10 6 8 10 9 9 10 10 11 9 5 7 9 9 11 9 7 6 4 4 4 4 5 5 8 9 9 10 9 9 10 10 14 12 6 10 10 6 12 13 9 9 8 8 5 4 5 5 6 8 11 9 8 11 13 10 6 7 8 9
4 2 -3 4 6 2 1 -3 2 3 -6 3 -0 -7 6 8 8 11 12 16 16 19 9 -6 3 10 10 10 6 7 6 6 9 7 11 10 9 11 10 8 7 9 9 10 12 10 9 7 6 5 4 7 10 9 9 6 3 3 4 4 5 6 9 9 10 10 8 8 11 15 12 6 10 9 6 11 12 9 9 8 7 6 5 4 5 6 9 10 9 7 10 12 7 4 6 9 10
0 12 -1 -3 9 5 -2 0 -1 -6 -5 4 1 1 5 4 12 11 14 26 14 6 5 -1 7 8 11 16 5 3 6 5 6 6 9 8 9 11 11 9 6 7 8 8 10 8 8 10 8 6 4 4 7 7 9 8 6 4 3 4 5 5 7 9 10 10 9 8 13 16 11 8 9 8 7 10 10 9 9 7 6 7 6 4 4 6 8 9 9 8 9 11 7 3 6 8 10
-1 18 12 -1 5 6 3 9 4 -2 5 7 4 6 0 1 10 1 9 21 2 -2 9 7 9 4 11 30 20 6 7 8 6 6 8 8 9 11 10 10 7 5 7 7 8 8 7 8 8 9 7 6 6 7 7 6 6 6 4 3 4 4 6 9 10 10 9 9 13 14 11 11 10 8 8 9 8 8 8 6 6 8 7 3 4 6 7 9 10 8 8 9 6 3 4 6 8
-0 16 30 17 7 6 -2 4 7 -0 3 8 9 5 -4 1 3 -1 18 22 -0 0 8 5 8 1 4 26 27 16 12 12 11 7 7 7 6 10 10 9 8 8 9 8 7 8 8 7 7 7 8 8 7 8 8 5 3 4 5 3 3 5 5 7 10 10 8 8 12 14 14 13 10 9 9 7 7 8 7 4 5 9 7 4 5 6 7 9 10 9 8 8 7 3 3 4 6
8 13 29 23 19 16 -7 -5 5 -3 4 11 6 -0 -4 2 2 5 20 15 1 6 8 4 11 8 6 17 18 12 12 14 16 10 5 7 7 7 9 7 8 9 10 11 9 8 8 8 8 7 7 9 8 9 10 8 5 4 6 5 4 4 5 7 10 10 7 7 11 14 14 13 8 8 9 7 7 8 7 4 5 8 7 5 6 6 6 8 9 10 9 8 7 4 4 4 5
8 16 26 22 28 24 -3 -1 1 -5 11 11 -0 2 1 1 3 7 9 2 1 6 2 1 11 12 9 17 14 6 9 12 14 14 10 11 10 8 8 7 7 7 8 10 11 10 8 8 9 9 8 7 8 8 9 10 9 8 7 4 4 4 5 7 9 9 7 7 10 12 14 11 7 7 7 7 6 7 6 5 7 9 7 5 6 5 6 8 9 10 10 9 7 5 5 4 4
16 21 26 21 22 18 -2 -2 -5 -9 8 7 1 4 0 1 5 5 5 1 -1 -1 -4 -3 7 13 10 18 16 5 9 12 11 13 14 13 11 8 9 9 8 7 8 8 10 12 10 8 8 9 10 8 7 7 8 9 8 11 10 4 3 4 5 6 8 9 7 7 9 11 15 10 5 7 6 6 7 6 6 6 8 9 7 5 5 6 6 7 9 8 9 11 8 5 6 5 4
29 17 18 15 5 4 -6 -7 -2 -1 7 12 7 -3 -4 6 7 4 3 1 -1 -1 -2 -4 5 15 13 11 7 1 7 12 12 10 9 12 11 10 11 9 8 6 7 8 8 9 10 10 9 8 9 10 9 7 7 8 7 10 12 6 3 3 5 6 7 8 7 8 9 10 14 10 5 6 6 6 7 6 5 6 8 8 7 5 5 6 6 6 8 7 8 11 11 8 6 5 6
20 4 8 7 -7 -6 -5 3 19 12 1 5 6 3 10 6 -2 6 8 2 3 1 -3 -0 11 18 13 7 -3 -1 11 12 12 11 6 9 10 12 13 11 12 10 8 8 6 7 9 10 11 11 9 8 10 11 8 7 7 8 10 9 5 3 5 7 6 8 7 8 9 8 12 10 5 5 6 6 6 7 6 5 7 8 7 6 5 6 5 5 7 7 7 10 12 11 7 6 6
14 5 5 5 2 2 -4 -0 18 12 -4 2 9 9 11 -1 -5 13 13 3 2 -3 -1 7 12 13 12 8 -5 -1 18 18 13 13 9 9 13 16 16 14 15 14 13 11 8 7 9 10 10 10 11 8 9 11 10 9 7 7 8 9 9 4 4 6 6 7 8 8 8 8 10 9 6 6 6 7 7 7 6 6 6 7 8 7 5 5 4 5 7 8 7 8 12 13 9 7 7
11 2 -2 8 17 12 3 3 11 4 -7 4 15 8 5 4 6 14 4 -2 -0 -4 5 9 3 7 11 9 7 9 15 18 19 18 10 7 14 20 19 16 14 13 13 13 14 12 7 9 10 7 7 8 9 9 10 11 9 8 9 9 11 7 3 4 5 6 8 9 8 7 10 9 7 6 6 7 8 7 6 7 6 7 9 7 5 5 4 4 7 7 7 7 10 13 11 8 6
8 -4 -5 14 28 19 7 2 -3 -5 -3 7 11 -0 2 8 3 0 -6 -6 2 1 6 7 3 11 10 8 22 20 6 9 19 18 11 5 8 14 16 18 16 14 11 12 22 25 13 8 10 10 8 8 11 10 9 12 9 8 9 8 11 9 4 3 5 5 6 8 8 7 9 10 7 6 6 6 7 7 6 6 6 7 9 7 5 6 4 4 6 7 7 7 9 12 13 10 6
-6 -11 -8 2 20 23 17 6 -3 7 22 28 22 2 -4 8 9 4 -0 -2 6 7 4 7 13 19 12 8 22 21 7 7 15 18 14 5 6 9 9 15 15 11 12 16 26 34 21 6 6 11 11 11 12 6 7 18 18 13 12 10 10 10 6 3 3 5 7 7 8 9 9 10 8 5 5 6 6 7 6 6 6 7 8 9 7 6 5 4 5 8 7 7 8 10 12 12 7
2 8 13 4 2 13 25 26 18 15 13 13 28 23 1 9 16 4 1 6 9 8 4 9 18 17 10 7 10 14 11 7 9 16 12 4 6 7 6 13 12 5 11 18 28 36 23 6 9 18 16 15 12 1 3 18 17 14 16 13 9 8 7 5 2 5 9 7 7 10 10 10 9 6 5 5 6 7 6 6 6 7 8 9 8 7 6 4 4 7 7 6 8 9 10 10 9
23 26 28 18 6 4 8 11 8 6 2 -3 19 32 7 1 12 7 10 13 3 6 15 20 19 13 10 9 5 8 11 6 6 12 11 6 7 6 6 14 13 7 10 16 26 39 33 13 13 23 20 15 7 -1 8 16 6 4 10 12 12 12 10 7 2 3 8 8 7 9 10 11 11 8 5 4 5 6 7 5 5 7 7 8 9 7 7 6 4 6 7 7 7 8 8 8 10
20 14 10 7 4 2 1 8 8 1 5 3 5 17 4 -12 -1 13 17 5 -11 1 20 17 9 9 13 12 7 6 5 3 5 10 10 8 9 8 6 10 12 8 11 18 24 33 37 23 10 10 14 18 10 4 11 15 7 5 6 7 11 13 13 12 7 4 6 8 8 7 8 10 11 10 8 5 4 5 6 5 4 6 6 6 8 8 7 7 5 5 7 7 6 7 7 8 9
-1 -1 3 -2 -5 -4 -2 8 11 0 4 9 3 10 11 -4 -5 5 7 0 -5 3 11 5 3 9 9 7 8 9 5 3 5 10 11 9 9 10 5 3 8 7 9 21 25 24 29 28 19 8 7 14 14 8 7 10 11 11 6 5 8 11 14 15 11 8 7 7 8 8 6 7 9 11 10 8 6 5 4 4 4 4 4 5 7 7 7 7 6 6 6 6 6 6 6 7 8
1 1 -1 -13 -5 8 0 -3 3 4 7 11 9 10 11 2 -3 1 4 5 7 11 18 15 8 6 2 -1 3 5 5 6 6 6 10 11 8 6 5 4 6 9 11 15 19 21 22 21 18 11 7 14 19 14 9 9 11 11 10 8 8 10 12 13 12 11 10 8 7 8 8 7 7 9 11 10 9 8 6 5 5 4 3 4 5 6 7 7 7 6 6 7 7 6 6 6 7
12 10 -2 -14 6 17 3 -1 6 7 -0 -3 1 4 2 3 7 12 11 10 13 18 23 19 8 8 12 9 5 5 11 16 13 6 10 18 13 3 4 7 7 10 12 12 13 17 20 17 12 10 12 21 30 24 13 11 9 8 13 15 11 8 5 7 10 9 11 12 9 7 7 8 7 6 7 9 9 10 9 8 6 5 3 4 5 5 6 7 7 7 7 6 7 8 7 6 6
9 0 0 1 6 4 -0 5 11 15 12 7 5 -0 -1 9 16 14 5 4 13 14 10 8 4 11 21 16 5 6 11 14 13 5 4 15 15 6 4 7 9 9 9 13 14 12 15 17 14 14 14 20 30 26 13 12 12 7 10 13 12 11 6 5 7 6 8 12 12 9 6 6 8 7 6 6 7 9 9 9 9 8 6 5 4 4 4 5 5 6 7 7 8 8 8 6 6
17 -6 2 13 1 -4 5 3 -2 8 15 14 8 -2 -2 8 12 5 -6 -2 9 7 4 7 8 12 19 14 6 6 6 6 9 8 4 7 10 11 9 6 7 9 8 12 13 11 13 13 13 16 17 20 29 30 17 10 12 12 12 12 11 10 8 7 7 7 7 9 12 14 11 8 6 6 7 7 7 7 7 9 9 9 9 7 6 5 4 4 4 5 6 7 8 9 8 7 6
26 -5 -1 19 7 3 17 15 8 12 16 14 6 0 5 12 12 2 -7 -1 7 4 8 17 18 15 12 7 7 6 3 5 10 10 9 5 5 9 10 4 4 9 11 11 11 12 13 11 10 13 16 17 21 26 23 16 17 18 15 12 11 8 7 7 7 7 7 9 11 13 13 12 9 7 6 6 6 6 6 8 9 9 9 9 8 7 5 5 4 4 5 5 6 8 8 7 7
21 -1 -7 11 9 4 11 17 16 6 4 10 5 3 7 4 -1 -6 -7 4 8 3 7 12 7 5 6 5 8 9 8 8 8 9 12 10 8 10 11 5 3 7 11 11 12 13 13 11 10 11 14 15 14 16 19 20 23 24 17 13 12 10 8 8 8 8 7 8 9 10 10 11 13 12 9 8 8 7 6 7 8 9 9 8 9 9 8 7 6 5 5 5 5 6 6 6 6
13 3 -7 4 11 5 0 9 16 6 3 11 7 3 6 3 -0 -0 2 8 8 5 10 6 -2 5 15 13 10 12 14 9 2 2 6 7 9 14 15 7 2 7 11 11 12 13 13 13 11 10 12 14 14 13 14 16 19 19 16 13 13 12 8 7 9 10 10 8 7 7 7 9 13 15 12 12 11 8 7 6 6 8 9 8 8 9 9 9 8 7 6 6 6 5 5 6 6
7 2 -1 5 7 3 -4 -5 5 7 4 5 3 3 10 15 15 12 10 8 7 9 12 10 11 17 19 14 10 11 15 14 10 8 5 5 11 21 22 9 -1 4 9 10 14 15 14 15 13 11 11 11 12 14 13 14 14 14 14 12 11 10 7 7 8 10 12 10 7 6 6 8 12 13 11 11 11 9 7 6 6 8 8 7 7 8 8 9 9 9 8 7 7 6 5 5 5
Height
5920 5920 5920 5920 5920 5919 5918 5918 5917 5917 5918 5918 5918 5918 5919 5919 5919 5920 5920 5922 5921 5922 5924 5925 5925 5921 5918 5920 5921 5922 5922 5922 5923 5924 5924 5923 5923 5923 5922 5922 5922 5922 5922 5921 5920 5920 5918 5917 5917 5917 5916 5915 5915 5915 5916 5917 5918 5919 5920 5920 5920 5921 5921 5921 5922 5923 5923 5923 5923 5923 5924 5924 5924 5924 5924 5924 5924 5923 5923 5923 5923 5923 5923 5923 5923 5923 5923 5923 5923 5922 5921 5921 5921 5920 5920 5920 5919
5921 5921 5920 5920 5920 5919 5918 5918 5917 5918 5918 5918 5919 5919 5919 5919 5919 5920 5921 5922 5921 5921 5923 5924 5926 5923 5920 5921 5922 5922 5922 5923 5923 5924 5923 5923 5923 5923 5923 5922 5922 5922 5922 5922 5921 5920 5919 5918 5918 5918 5917 5917 5917 5917 5918 5918 5919 5920 5921 5921 5921 5921 5922 5922 5923 5923 5924 5924 5925 5925 5925 5925 5925 5925 5925 5924 5924 5923 5923 5923 5923 5923 5923 5923 5923 5923 5923 5923 5923 5922 5921 5921 5921 5921 5920 5920 5919
5922 5921 5920 5920 5920 5919 5919 5919 5918 5918 5918 5919 5921 5920 5919 5921 5921 5921 5921 5921 5922 5923 5923 5923 5927 5925 5922 5922 5922 5922 5923 5923 5924 5923 5923 5923 5923 5923 5923 5922 5922 5922 5922 5922 5922 5921 5920 5919 5919 5919 5919 5918 5918 5918 5919 5920 5920 5921 5921 5922 5922 5922 5922 5922 5923 5924 5925 5925 5926 5926 5926 5926 5926 5926 5925 5925 5924 5924 5924 5924 5924 5923 5923 5923 5923 5923 5923 5923 5922 5922 5921 5921 5920 5920 5920 5920 5920
5922 5921 5921 5921 5921 5921 5920 5919 5919 5918 5919 5921 5922 5921 5920 5921 5922 5922 5922 5922 5923 5924 5923 5923 5925 5925 5923 5922 5922 5922 5923 5923 5923 5923 5923 5923 5923 5923 5923 5922 5922 5921 5922 5921 5921 5921 5920 5919 5920 5920 5920 5920 5920 5920 5920 5921 5921 5922 5922 5922 5922 5922 5922 5923 5924 5925 5925 5926 5926 5927 5927 5927 5927 5926 5926 5925 5925 5925 5925 5924 5924 5923 5923 5923 5923 5923 5923 5922 5922 5921 5921 5921 5920 5920 5920 5920 5919
5922 5923 5923 5922 5922 5921 5920 5920 5919 5919 5920 5922 5922 5921 5920 5921 5922 5923 5923 5923 5924 5924 5923 5923 5925 5924 5923 5923 5922 5923 5923 5923 5923 5923 5923 5923 5923 5923 5923 5922 5922 5921 5921 5921 5921 5921 5920 5920 5920 5920 5920 5920 5920 5920 5921 5921 5922 5922 5922 5922 5923 5923 5923 5923 5924 5925 5926 5927 5927 5927 5927 5927 5927 5927 5926 5925 5925 5925 5925 5924 5924 5923 5922 5922 5922 5922 5922 5922 5921 5921 5921 5921 5920 5920 5920 5920 5919
5923 5924 5924 5924 5923 5922 5921 5920 5920 5920 5922 5923 5922 5921 5921 5922 5923 5923 5923 5923 5924 5924 5923 5923 5924 5925 5924 5924 5923 5923 5923 5924 5923 5923 5923 5923 5923 5923 5923 5922 5922 5922 5921 5921 5921 5921 5920 5920 5920 5920 5921 5921 5920 5920 5921 5921 5922 5922 5922 5922 5923 5923 5923 5924 5925 5925 5926 5927 5927 5927 5927 5928 5927 5927 5926 5926 5925 5925 5924 5924 5923 5923 5922 5921 5921 5921 5921 5921 5920 5920 5920 5920 5920 5920 5920 5919 5919
5924 5924 5925 5925 5924 5922 5922 5921 5920 5920 5923 5924 5923 5922 5923 5923 5924 5924 5923 5923 5923 5923 5923 5923 5924 5925 5925 5925 5924 5923 5923 5924 5923 5923 5923 5923 5923 5923 5923 5923 5922 5922 5921 5921 5921 5921 5920 5920 5920 5921 5921 5921 5921 5921 5921 5921 5922 5922 5922 5922 5923 5923 5924 5924 5925 5925 5926 5926 5927 5927 5927 5927 5927 5927 5926 5925 5925 5925 5924 5924 5923 5922 5921 5921 5920 5920 5920 5920 5919 5919 5919 5919 5919 5919 5919 5919 5919
5926 5926 5927 5926 5924 5923 5922 5922 5922 5921 5922 5924 5924 5923 5923 5923 5924 5924 5924 5924 5923 5923 5924 5923 5924 5925 5926 5926 5925 5924 5923 5924 5923 5923 5923 5923 5923 5924 5924 5923 5922 5922 5921 5921 5921 5921 5920 5920 5920 5920 5921 5921 5921 5921 5921 5922 5922 5922 5922 5922 5923 5923 5924 5924 5924 5925 5925 5926 5927 5927 5927 5927 5926 5926 5925 5924 5924 5924 5924 5923 5922 5922 5921 5920 5920 5919 5919 5919 5919 5919 5919 5919 5919 5919 5919 5919 5919
5927 5927 5928 5926 5924 5923 5923 5922 5923 5923 5923 5923 5923 5922 5922 5923 5923 5923 5923 5923 5922 5922 5923 5923 5924 5925 5926 5926 5925 5924 5924 5924 5923 5923 5923 5923 5923 5924 5924 5923 5923 5922 5921 5921 5921 5921 5921 5920 5920 5920 5921 5921 5921 5921 5921 5922 5922 5922 5923 5922 5923 5923 5923 5924 5924 5925 5925 5926 5926 5926 5926 5926 5926 5925 5925 5924 5923 5923 5923 5922 5922 5921 5920 5920 5920 5919 5918 5918 5918 5918 5918 5919 5919 5918 5918 5919 5920
5929 5928 5928 5927 5925 5924 5923 5923 5923 5924 5924 5923 5922 5922 5922 5922 5922 5923 5923 5923 5922 5922 5923 5923 5924 5924 5926 5926 5925 5924 5925 5924 5924 5923 5923 5923 5923 5924 5924 5924 5923 5922 5922 5921 5921 5921 5921 5921 5921 5920 5920 5920 5920 5921 5921 5922 5922 5922 5922 5922 5922 5923 5923 5923 5924 5924 5925 5926 5926 5926 5926 5925 5925 5925 5924 5923 5923 5922 5922 5922 5921 5920 5920 5919 5919 5918 5918 5917 5917 5917 5918 5918 5919 5919 5919 5919 5920
5930 5929 5929 5927 5926 5925 5923 5923 5924 5925 5924 5923 5922 5922 5922 5922 5922 5922 5922 5922 5922 5922 5922 5923 5923 5924 5925 5926 5925 5924 5925 5925 5925 5924 5923 5923 5923 5924 5924 5923 5923 5922 5922 5922 5921 5921 5921 5921 5921 5921 5921 5921 5920 5921 5921 5922 5922 5922 5922 5921 5922 5922 5923 5923 5924 5924 5925 5925 5926 5925 5925 5925 5924 5924 5923 5923 5922 5922 5922 5921 5920 5920 5919 5919 5919 5918 5917 5917 5916 5916 5917 5918 5918 5919 5919 5920 5920
5931 5930 5928 5927 5926 5925 5924 5924 5925 5925 5924 5923 5923 5923 5923 5922 5922 5922 5922 5922 5921 5921 5922 5922 5923 5924 5925 5925 5925 5924 5924 5924 5925 5924 5924 5923 5923 5923 5923 5923 5923 5922 5922 5922 5922 5921 5921 5921 5921 5921 5921 5921 5921 5921 5921 5922 5923 5923 5922 5922 5922 5922 5923 5923 5924 5924 5925 5925 5925 5925 5924 5924 5924 5923 5923 5922 5922 5921 5921 5921 5920 5919 5919 5919 5918 5918 5917 5917 5916 5916 5917 5918 5918 5919 5919 5920 5920
5931 5929 5928 5927 5926 5926 5925 5925 5925 5925 5925 5924 5924 5924 5923 5923 5922 5922 5922 5922 5921 5921 5922 5922 5922 5923 5924 5925 5925 5924 5924 5924 5924 5925 5924 5924 5923 5923 5923 5923 5923 5922 5922 5922 5921 5921 5921 5921 5921 5921 5922 5922 5922 5922 5922 5922 5923 5923 5923 5923 5922 5923 5923 5923 5924 5924 5924 5925 5925 5924 5924 5923 5923 5923 5922 5921 5921 5920 5920 5920 5920 5919 5919 5918 5918 5917 5917 5916 5916 5917 5917 5918 5918 5919 5920 5920 5920
5930 5929 5927 5926 5927 5926 5926 5926 5926 5926 5925 5925 5925 5924 5923 5923 5923 5922 5922 5922 5922 5922 5922 5922 5922 5922 5922 5923 5924 5925 5924 5922 5923 5924 5924 5923 5923 5923 5923 5923 5923 5922 5922 5922 5921 5921 5921 5921 5921 5921 5922 5922 5922 5922 5922 5923 5923 5924 5924 5923 5923 5923 5924 5924 5924 5924 5924 5924 5924 5924 5923 5923 5923 5922 5921 5920 5920 5920 5920 5920 5919 5919 5918 5918 5917 5917 5917 5917 5917 5917 5917 5918 5918 5919 5920 5920 5920
5929 5928 5927 5926 5927 5927 5926 5926 5927 5927 5926 5925 5925 5925 5923 5923 5922 5922 5922 5922 5922 5922 5922 5922 5921 5921 5921 5921 5923 5924 5924 5922 5922 5923 5923 5923 5923 5923 5923 5922 5922 5922 5922 5921 5921 5921 5921 5921 5921 5921 5921 5922 5922 5922 5923 5923 5924 5924 5924 5924 5923 5923 5923 5924 5924 5923 5923 5923 5923 5923 5923 5922 5922 5921 5921 5920 5920 5920 5920 5919 5919 5918 5918 5917 5917 5917 5917 5917 5917 5917 5917 5918 5918 5918 5919 5920 5920
5928 5928 5926 5926 5927 5927 5927 5927 5928 5928 5926 5926 5926 5925 5924 5923 5922 5922 5922 5922 5922 5922 5921 5921 5921 5921 5921 5921 5922 5924 5924 5923 5922 5922 5922 5922 5922 5922 5922 5922 5922 5922 5922 5921 5921 5921 5921 5921 5921 5921 5921 5921 5922 5922 5923 5923 5924 5924 5923 5923 5923 5923 5923 5923 5923 5923 5923 5922 5923 5923 5922 5922 5921 5921 5920 5920 5920 5920 5920 5919 5918 5918 5917 5917 5917 5917 5917 5917 5917 5917 5917 5918 5918 5918 5919 5920 5920
5929 5928 5926 5928 5929 5928 5929 5928 5928 5928 5928 5927 5926 5925 5925 5924 5923 5923 5922 5923 5923 5922 5921 5921 5920 5921 5921 5920 5921 5922 5923 5923 5923 5923 5923 5923 5922 5922 5922 5922 5922 5922 5922 5921 5921 5922 5922 5921 5921 5921 5921 5921 5922 5922 5923 5923 5923 5923 5923 5923 5923 5923 5923 5923 5923 5923 5923 5922 5922 5922 5922 5921 5921 5920 5920 5919 5920 5920 5919 5919 5918 5917 5917 5917 5917 5917 5917 5917 5917 5917 5918 5918 5918 5919 5919 5920 5920
5929 5928 5928 5930 5930 5931 5931 5930 5929 5929 5929 5928 5927 5927 5926 5925 5924 5924 5923 5923 5923 5922 5922 5921 5920 5920 5920 5919 5920 5921 5921 5921 5922 5922 5923 5923 5922 5922 5922 5922 5922 5922 5922 5922 5922 5922 5922 5922 5922 5922 5922 5922 5922 5922 5923 5923 5923 5923 5923 5923 5923 5923 5923 5923 5923 5923 5923 5922 5921 5921 5921 5920 5920 5920 5919 5919 5919 5919 5919 5918 5918 5917 5917 5917 5917 5917 5918 5918 5918 5918 5918 5918 5919 5920 5920 5920 5920
5929 5929 5930 5931 5931 5932 5933 5932 5930 5929 5929 5929 5928 5928 5927 5926 5925 5925 5924 5923 5923 5923 5922 5921 5921 5920 5920 5919 5919 5919 5920 5920 5920 5920 5922 5923 5922 5922 5921 5922 5922 5922 5923 5923 5922 5922 5922 5922 5922 5922 5922 5922 5922 5922 5923 5923 5923 5923 5923 5923 5923 5923 5923 5923 5923 5923 5923 5922 5921 5921 5920 5920 5920 5920 5919 5919 5919 5919 5919 5918 5918 5917 5918 5918 5918 5917 5918 5918 5918 5919 5919 5919 5920 5920 5920 5920 5920
5930 5932 5932 5932 5932 5933 5933 5932 5931 5930 5930 5930 5929 5928 5928 5927 5926 5925 5924 5923 5923 5923 5921 5920 5920 5920 5919 5919 5918 5918 5918 5919 5919 5919 5921 5922 5922 5921 5921 5922 5922 5923 5923 5923 5923 5923 5923 5922 5922 5922 5922 5922 5922 5922 5922 5923 5923 5923 5923 5923 5922 5922 5922 5922 5922 5922 5921 5921 5921 5921 5920 5920 5919 5919 5920 5919 5918 5918 5918 5918 5917 5917 5918 5918 5918 5918 5918 5919 5919 5919 5919 5920 5920 5921 5921 5921 5920
5932 5933 5933 5933 5933 5933 5933 5932 5932 5931 5931 5931 5930 5929 5928 5927 5927 5926 5925 5924 5923 5922 5921 5920 5919 5919 5918 5918 5917 5917 5917 5919 5920 5920 5920 5920 5920 5921 5921 5922 5922 5922 5923 5923 5923 5923 5922 5922 5922 5922 5922 5922 5922 5921 5922 5922 5922 5923 5922 5922 5922 5921 5921 5921 5921 5921 5920 5920 5920 5920 5920 5920 5919 5920 5920 5919 5918 5918 5917 5917 5917 5917 5918 5918 5919 5919 5919 5919 5919 5920 5920 5921 5921 5921 5921 5921 5921
5933 5934 5933 5933 5933 5933 5933 5932 5932 5931 5931 5931 5931 5930 5929 5927 5927 5926 5925 5924 5922 5921 5920 5919 5919 5918 5918 5918 5917 5918 5917 5918 5919 5919 5919 5918 5920 5921 5921 5921 5921 5921 5921 5922 5922 5922 5922 5922 5922 5922 5922 5922 5922 5921 5921 5921 5922 5922 5922 5922 5921 5921 5921 5920 5920 5920 5919 5919 5919 5919 5919 5919 5919 5919 5919 5919 5918 5918 5917 5917 5917 5917 5918 5918 5919 5919 5919 5919 5920 5920 5921 5921 5922 5922 5922 5921 5922
5934 5934 5933 5933 5932 5932 5932 5931 5932 5931 5930 5930 5930 5930 5930 5928 5927 5926 5925 5924 5922 5921 5920 5919 5918 5918 5918 5918 5918 5918 5917 5916 5917 5918 5918 5918 5920 5920 5920 5920 5920 5920 5920 5920 5921 5921 5922 5922 5922 5922 5922 5922 5921 5921 5921 5921 5921 5921 5922 5922 5921 5921 5920 5920 5919 5918 5918 5918 5918 5918 5918 5918 5919 5919 5919 5919 5918 5918 5917 5917 5917 5918 5918 5919 5919 5919 5919 5920 5920 5921 5921 5922 5922 5923 5922 5922 5922
5934 5933 5933 5932 5932 5932 5931 5931 5931 5930 5929 5929 5929 5930 5930 5929 5927 5926 5925 5924 5923 5921 5920 5919 5918 5918 5918 5918 5918 5917 5916 5916 5916 5917 5918 5918 5919 5919 5919 5919 5920 5920 5920 5920 5920 5921 5921 5921 5921 5922 5922 5922 5922 5922 5921 5921 5921 5921 5921 5921 5921 5921 5921 5920 5919 5918 5917 5917 5917 5917 5917 5917 5918 5918 5918 5918 5918 5918 5917 5918 5918 5919 5919 5919 5919 5919 5919 5920 5921 5921 5922 5922 5922 5923 5922 5922 5923
5934 5933 5933 5933 5932 5932 5931 5930 5930 5929 5929 5929 5929 5929 5930 5929 5927 5926 5925 5924 5923 5922 5920 5920 5919 5919 5919 5918 5917 5916 5916 5916 5916 5916 5917 5918 5919 5918 5918 5919 5919 5920 5920 5920 5921 5920 5920 5920 5921 5921 5921 5922 5922 5922 5921 5921 5921 5921 5921 5921 5921 5921 5921 5920 5919 5918 5917 5917 5916 5916 5915 5915 5916 5917 5917 5917 5918 5918 5918 5918 5919 5919 5919 5919 5920 5920 5920 5921 5921 5922 5922 5922 5923 5923 5923 5923 5924
5932 5932 5933 5933 5933 5932 5931 5930 5930 5929 5930 5930 5929 5928 5929 5928 5927 5926 5925 5924 5923 5922 5921 5920 5920 5920 5919 5917 5916 5915 5916 5917 5916 5917 5917 5917 5918 5918 5918 5918 5918 5919 5919 5919 5920 5920 5920 5920 5919 5920 5920 5921 5921 5921 5921 5921 5921 5921 5921 5920 5920 5920 5920 5919 5919 5919 5918 5917 5916 5915 5914 5914 5915 5916 5916 5917 5917 5918 5918 5919 5919 5919 5919 5920 5920 5920 5921 5921 5922 5922 5923 5923 5923 5923 5923 5924 5925
5930 5931 5932 5933 5933 5932 5932 5931 5930 5930 5930 5930 5929 5928 5928 5929 5928 5927 5925 5924 5923 5922 5921 5921 5921 5920 5919 5918 5916 5916 5917 5918 5917 5917 5916 5917 5917 5917 5917 5918 5918 5918 5918 5918 5918 5919 5919 5919 5919 5919 5919 5920 5920 5920 5920 5920 5920 5920 5920 5919 5919 5919 5919 5918 5919 5918 5918 5917 5916 5915 5914 5914 5915 5915 5916 5916 5917 5918 5919 5919 5919 5920 5920 5920 5921 5921 5921 5922 5923 5923 5923 5923 5923 5923 5924 5925 5926
5930 5930 5931 5932 5932 5932 5932 5931 5931 5931 5931 5930 5929 5928 5928 5929 5929 5928 5926 5924 5923 5922 5922 5922 5922 5921 5920 5918 5917 5917 5917 5918 5917 5916 5916 5916 5916 5917 5917 5916 5917 5917 5917 5917 5916 5917 5917 5917 5917 5918 5918 5918 5919 5919 5919 5919 5919 5919 5919 5919 5918 5918 5918 5918 5918 5918 5917 5917 5916 5915 5915 5915 5915 5916 5916 5916 5916 5917 5918 5919 5920 5920 5920 5921 5921 5921 5922 5922 5923 5923 5923 5923 5923 5924 5925 5926 5927
5930 5929 5929 5930 5931 5931 5932 5932 5931 5932 5932 5931 5929 5928 5928 5928 5928 5927 5926 5925 5923 5922 5922 5922 5922 5921 5920 5918 5917 5917 5918 5917 5916 5915 5915 5915 5915 5916 5916 5915 5916 5916 5916 5916 5915 5915 5915 5915 5916 5916 5916 5917 5918 5918 5918 5918 5917 5918 5918 5917 5917 5917 5917 5917 5917 5917 5916 5916 5916 5916 5915 5915 5916 5916 5916 5916 5917 5917 5918 5919 5920 5920 5920 5921 5921 5921 5922 5922 5922 5923 5923 5923 5924 5925 5926 5927 5927
5930 5929 5930 5930 5930 5930 5931 5932 5932 5932 5933 5932 5930 5929 5928 5928 5927 5927 5926 5925 5924 5922 5921 5922 5922 5921 5919 5918 5917 5917 5917 5916 5915 5915 5914 5914 5914 5915 5915 5914 5915 5915 5915 5915 5914 5914 5913 5913 5913 5914 5915 5915 5916 5917 5917 5917 5916 5916 5916 5916 5916 5916 5916 5916 5916 5916 5916 5916 5916 5915 5915 5915 5916 5916 5916 5916 5917 5918 5918 5919 5919 5920 5920 5921 5921 5922 5922 5923 5923 5923 5924 5924 5925 5926 5927 5927 5928
5931 5930 5930 5930 5929 5930 5930 5931 5932 5933 5933 5932 5930 5929 5928 5928 5928 5927 5926 5925 5924 5922 5921 5922 5922 5921 5920 5918 5917 5917 5916 5914 5914 5914 5913 5913 5913 5913 5914 5913 5913 5913 5913 5913 5912 5912 5912 5912 5911 5911 5912 5913 5914 5915 5915 5916 5916 5915 5915 5914 5914 5915 5915 5915 5915 5915 5915 5915 5915 5915 5915 5915 5915 5916 5916 5917 5917 5918 5919 5919 5920 5920 5920 5921 5921 5922 5923 5923 5923 5924 5924 5925 5925 5926 5927 5928 5929
5932 5931 5930 5929 5929 5930 5930 5931 5932 5933 5933 5932 5931 5929 5928 5927 5927 5927 5926 5924 5923 5922 5922 5923 5923 5922 5920 5918 5918 5917 5915 5914 5913 5913 5913 5913 5913 5912 5912 5913 5912 5911 5912 5911 5911 5911 5911 5910 5910 5910 5910 5911 5912 5913 5914 5914 5915 5915 5914 5914 5913 5913 5913 5914 5914 5914 5915 5915 5915 5915 5915 5915 5915 5916 5916 5917 5918 5918 5919 5920 5920 5920 5920 5921 5922 5922 5923 5924 5924 5924 5925 5925 5926 5927 5928 5929 5930
5931 5931 5931 5930 5930 5930 5930 5931 5932 5933 5932 5931 5930 5929 5928 5926 5925 5925 5924 5923 5922 5922 5922 5923 5923 5922 5920 5918 5917 5916 5915 5914 5913 5912 5912 5912 5912 5912 5912 5912 5911 5910 5910 5909 5909 5909 5909 5909 5909 5909 5908 5909 5909 5910 5912 5912 5913 5914 5914 5913 5912 5912 5912 5912 5912 5913 5914 5914 5914 5914 5914 5915 5915 5915 5916 5917 5918 5919 5920 5920 5920 5920 5921 5921 5922 5923 5924 5924 5924 5924 5925 5926 5926 5927 5929 5930 5930
5930 5929 5930 5930 5930 5930 5930 5931 5932 5932 5932 5931 5930 5929 5928 5926 5925 5924 5923 5923 5922 5921 5922 5922 5923 5923 5921 5918 5916 5915 5915 5914 5913 5912 5911 5911 5911 5911 5911 5911 5910 5909 5909 5908 5908 5907 5908 5908 5907 5907 5907 5907 5907 5908 5909 5910 5911 5912 5912 5912 5912 5911 5911 5911 5911 5912 5912 5912 5913 5914 5914 5914 5914 5915 5916 5917 5918 5919 5920 5920 5920 5920 5921 5922 5922 5923 5923 5923 5923 5924 5925 5926 5927 5928 5929 5930 5931
5929 5928 5929 5929 5930 5930 5931 5931 5932 5932 5931 5930 5930 5929 5928 5926 5925 5924 5924 5923 5922 5921 5921 5921 5922 5923 5922 5919 5916 5915 5914 5913 5912 5911 5911 5910 5910 5910 5910 5909 5908 5908 5908 5908 5908 5907 5906 5906 5906 5906 5905 5905 5906 5906 5906 5908 5909 5910 5910 5911 5910 5910 5910 5910 5910 5910 5911 5911 5912 5913 5913 5914 5914 5914 5915 5916 5917 5918 5919 5920 5920 5920 5921 5922 5922 5923 5923 5923 5924 5924 5925 5927 5928 5928 5930 5930 5931
5929 5928 5929 5929 5929 5930 5930 5931 5931 5931 5930 5929 5929 5929 5927 5926 5925 5924 5924 5923 5922 5921 5920 5920 5920 5921 5921 5919 5917 5915 5913 5912 5911 5911 5910 5909 5909 5908 5908 5908 5907 5907 5907 5907 5907 5907 5906 5905 5904 5904 5904 5903 5904 5904 5904 5905 5906 5907 5908 5909 5909 5909 5909 5909 5909 5910 5910 5910 5911 5912 5913 5913 5913 5914 5915 5916 5917 5918 5918 5919 5920 5920 5921 5922 5923 5923 5924 5924 5924 5924 5925 5927 5928 5929 5930 5931 5931
5928 5927 5928 5929 5929 5930 5930 5931 5931 5930 5929 5929 5929 5928 5927 5926 5925 5924 5923 5922 5921 5920 5920 5919 5918 5919 5919 5918 5917 5915 5913 5912 5911 5910 5909 5908 5907 5907 5907 5906 5906 5906 5906 5906 5906 5906 5905 5904 5903 5903 5902 5902 5903 5903 5903 5903 5904 5905 5906 5907 5908 5908 5907 5908 5908 5909 5909 5909 5910 5911 5912 5912 5913 5913 5914 5915 5916 5917 5918 5919 5920 5920 5921 5922 5923 5923 5924 5924 5924 5924 5925 5926 5928 5929 5930 5931 5931
5927 5927 5927 5927 5928 5929 5930 5930 5930 5929 5929 5928 5928 5928 5927 5926 5925 5923 5922 5921 5921 5920 5919 5918 5917 5916 5917 5917 5917 5915 5913 5912 5911 5910 5909 5908 5907 5906 5906 5905 5905 5905 5905 5905 5904 5904 5904 5903 5903 5902 5902 5902 5902 5902 5902 5902 5902 5903 5904 5905 5906 5906 5906 5906 5907 5908 5908 5908 5909 5910 5911 5912 5912 5913 5914 5915 5916 5917 5917 5918 5919 5920 5921 5922 5923 5924 5924 5924 5924 5924 5925 5926 5928 5929 5930 5931 5931
5926 5926 5927 5927 5927 5929 5930 5930 5929 5928 5928 5928 5928 5927 5926 5926 5925 5923 5922 5920 5920 5919 5918 5917 5916 5915 5915 5916 5916 5915 5913 5912 5911 5910 5909 5908 5907 5907 5906 5905 5905 5904 5904 5904 5904 5904 5903 5903 5902 5902 5901 5901 5901 5901 5901 5902 5902 5901 5902 5903 5903 5904 5904 5905 5905 5906 5907 5908 5908 5909 5910 5911 5912 5913 5914 5915 5915 5916 5917 5918 5919 5920 5921 5922 5923 5923 5923 5923 5924 5924 5925 5926 5927 5928 5930 5930 5930
5925 5926 5926 5927 5928 5929 5930 5929 5928 5927 5927 5927 5928 5927 5926 5926 5925 5923 5922 5921 5920 5919 5918 5916 5915 5914 5914 5915 5915 5914 5913 5911 5910 5909 5908 5907 5906 5906 5906 5905 5905 5904 5904 5904 5904 5904 5903 5903 5902 5901 5900 5900 5901 5901 5901 5901 5901 5900 5900 5901 5902 5902 5902 5903 5904 5904 5905 5906 5907 5909 5910 5911 5912 5912 5913 5914 5915 5916 5917 5918 5919 5920 5921 5922 5922 5923 5923 5923 5924 5924 5925 5926 5927 5928 5929 5930 5930
5925 5925 5926 5926 5927 5927 5927 5926 5925 5926 5926 5927 5927 5925 5925 5926 5925 5923 5922 5921 5920 5919 5917 5916 5914 5913 5913 5913 5913 5912 5912 5911 5910 5908 5907 5906 5906 5905 5905 5905 5904 5904 5904 5903 5903 5904 5903 5903 5902 5901 5899 5899 5899 5899 5899 5900 5900 5900 5899 5900 5900 5901 5901 5901 5902 5902 5904 5905 5906 5908 5909 5910 5911 5912 5913 5914 5914 5915 5916 5917 5918 5919 5920 5921 5922 5923 5923 5923 5924 5924 5925 5926 5927 5928 5929 5930 5931
5924 5925 5926 5926 5925 5925 5925 5925 5924 5925 5926 5926 5925 5924 5924 5924 5923 5922 5921 5920 5919 5918 5917 5916 5915 5913 5912 5912 5912 5911 5910 5910 5909 5907 5906 5905 5905 5904 5904 5904 5904 5904 5903 5903 5902 5902 5902 5902 5901 5901 5900 5899 5898 5897 5897 5897 5898 5899 5900 5900 5900 5900 5900 5900 5901 5901 5902 5903 5905 5906 5908 5909 5910 5911 5912 5913 5914 5915 5916 5917 5918 5918 5919 5920 5921 5922 5923 5923 5924 5924 5925 5926 5926 5927 5929 5930 5931
5923 5924 5925 5924 5924 5924 5925 5924 5924 5924 5925 5925 5924 5923 5923 5922 5922 5920 5920 5919 5918 5918 5917 5917 5915 5913 5912 5912 5912 5910 5909 5908 5908 5907 5906 5905 5904 5903 5902 5902 5902 5902 5901 5900 5899 5898 5898 5899 5899 5899 5899 5899 5898 5897 5896 5895 5896 5897 5899 5900 5901 5901 5901 5900 5900 5900 5901 5902 5903 5905 5906 5908 5909 5910 5911 5912 5913 5914 5915 5916 5917 5918 5919 5920 5921 5922 5922 5923 5924 5924 5925 5925 5926 5927 5928 5929 5930
5923 5923 5923 5923 5923 5923 5924 5925 5924 5924 5924 5924 5924 5922 5921 5921 5920 5919 5919 5918 5918 5918 5918 5917 5915 5914 5912 5912 5912 5911 5910 5908 5907 5906 5905 5904 5903 5901 5900 5900 5900 5899 5898 5896 5895 5894 5895 5895 5895 5895 5895 5896 5897 5896 5895 5894 5894 5894 5896 5899 5900 5902 5902 5901 5900 5900 5900 5901 5902 5903 5905 5906 5907 5909 5910 5912 5912 5913 5914 5915 5916 5917 5918 5919 5920 5921 5922 5923 5924 5924 5924 5925 5926 5926 5927 5928 5929
5922 5921 5921 5922 5922 5923 5924 5924 5924 5923 5923 5924 5923 5921 5920 5920 5919 5919 5918 5918 5918 5918 5917 5916 5915 5913 5913 5912 5912 5912 5910 5908 5906 5905 5904 5902 5901 5901 5900 5899 5898 5896 5895 5892 5890 5890 5890 5891 5891 5891 5891 5891 5892 5894 5894 5892 5892 5893 5894 5896 5898 5900 5901 5901 5900 5900 5900 5900 5901 5902 5903 5905 5906 5907 5909 5911 5912 5913 5913 5915 5916 5917 5918 5919 5920 5921 5922 5922 5923 5924 5924 5924 5925 5926 5926 5927 5929
5921 5920 5921 5922 5922 5923 5923 5923 5923 5923 5923 5923 5922 5921 5920 5919 5919 5918 5918 5918 5918 5917 5916 5915 5914 5913 5913 5912 5911 5911 5909 5907 5905 5903 5902 5901 5900 5899 5898 5897 5896 5894 5892 5889 5886 5885 5885 5886 5887 5888 5889 5888 5888 5890 5893 5892 5891 5892 5894 5895 5896 5897 5898 5899 5900 5900 5899 5900 5900 5901 5902 5903 5905 5906 5908 5909 5911 5912 5913 5914 5915 5916 5917 5918 5919 5920 5921 5922 5922 5923 5924 5924 5925 5925 5926 5927 5928
5920 5920 5920 5921 5922 5923 5923 5923 5923 5923 5922 5922 5921 5920 5919 5919 5918 5918 5917 5917 5917 5916 5915 5914 5913 5913 5912 5911 5910 5909 5908 5906 5904 5902 5901 5899 5898 5897 5896 5896 5894 5892 5889 5886 5883 5882 5882 5883 5885 5887 5888 5889 5888 5889 5892 5893 5892 5893 5894 5892 5892 5894 5896 5898 5899 5900 5900 5900 5900 5901 5902 5903 5904 5905 5907 5908 5910 5911 5912 5913 5915 5916 5917 5917 5918 5919 5920 5921 5922 5923 5923 5924 5924 5924 5925 5926 5927
5920 5920 5920 5920 5922 5922 5922 5922 5922 5921 5921 5921 5920 5919 5919 5918 5917 5917 5917 5916 5915 5915 5914 5913 5913 5912 5911 5909 5908 5907 5906 5905 5903 5902 5900 5899 5897 5896 5895 5894 5892 5890 5887 5884 5882 5880 5881 5882 5885 5887 5889 5891 5890 5889 5891 5892 5891 5891 5890 5890 5892 5895 5896 5898 5899 5900 5901 5901 5901 5901 5902 5903 5904 5905 5906 5907 5908 5910 5911 5912 5914 5915 5916 5916 5917 5918 5919 5920 5921 5922 5923 5923 5923 5924 5925 5925 5926
5919 5919 5919 5920 5921 5921 5921 5921 5920 5920 5920 5920 5919 5918 5918 5917 5916 5916 5915 5914 5914 5914 5913 5913 5912 5910 5909 5908 5907 5906 5905 5904 5903 5901 5899 5898 5896 5895 5893 5892 5891 5889 5886 5884 5881 5880 5881 5883 5885 5887 5888 5888 5886 5884 5884 5886 5888 5888 5888 5890 5892 5894 5895 5897 5898 5899 5900 5900 5901 5901 5901 5902 5903 5904 5905 5906 5907 5908 5909 5911 5912 5913 5914 5915 5916 5917 5917 5919 5920 5921 5922 5923 5923 5923 5924 5925 5925
5918 5918 5919 5919 5919 5919 5919 5919 5919 5919 5919 5918 5917 5917 5916 5915 5914 5914 5913 5913 5913 5912 5912 5912 5911 5909 5907 5907 5907 5905 5904 5903 5902 5900 5899 5897 5896 5894 5892 5891 5890 5888 5887 5885 5882 5881 5881 5882 5883 5883 5883 5881 5880 5879 5880 5883 5886 5886 5886 5888 5889 5890 5892 5894 5896 5897 5898 5899 5900 5900 5901 5901 5902 5903 5904 5905 5905 5906 5908 5909 5910 5912 5913 5914 5915 5915 5916 5918 5919 5920 5921 5922 5922 5922 5923 5924 5925
5918 5918 5918 5918 5918 5918 5918 5918 5918 5918 5918 5917 5917 5916 5915 5913 5912 5913 5912 5912 5911 5910 5911 5911 5910 5908 5907 5906 5906 5905 5904 5903 5902 5900 5899 5897 5896 5894 5892 5890 5889 5889 5888 5886 5883 5881 5880 5879 5879 5879 5878 5877 5876 5877 5879 5881 5882 5883 5884 5886 5887 5889 5890 5892 5893 5895 5896 5898 5899 5899 5900 5900 5901 5902 5903 5904 5904 5905 5906 5907 5909 5910 5911 5913 5914 5915 5916 5917 5918 5919 5919 5920 5921 5922 5923 5923 5924
5917 5917 5917 5917 5917 5917 5918 5918 5918 5917 5917 5916 5916 5915 5914 5913 5912 5912 5911 5910 5910 5910 5909 5909 5909 5907 5906 5906 5905 5905 5904 5903 5902 5900 5899 5897 5896 5894 5892 5890 5889 5888 5888 5886 5884 5882 5880 5879 5877 5877 5876 5874 5874 5876 5877 5878 5879 5880 5882 5883 5885 5887 5888 5889 5891 5892 5894 5896 5897 5898 5899 5899 5900 5900 5901 5902 5903 5904 5905 5906 5907 5908 5909 5911 5912 5913 5915 5916 5916 5917 5918 5919 5920 5921 5922 5923 5923
5916 5916 5916 5916 5916 5917 5917 5917 5917 5917 5916 5915 5915 5914 5913 5912 5911 5910 5910 5910 5910 5909 5909 5908 5907 5906 5905 5905 5905 5905 5904 5902 5901 5900 5898 5897 5896 5894 5892 5890 5889 5888 5887 5885 5884 5882 5881 5879 5877 5876 5874 5872 5872 5873 5874 5875 5876 5877 5879 5881 5882 5884 5886 5887 5888 5889 5891 5893 5895 5896 5897 5898 5898 5899 5899 5900 5901 5902 5903 5904 5905 5906 5907 5909 5910 5911 5913 5914 5915 5916 5917 5918 5919 5920 5921 5921 5922
5916 5916 5916 5916 5916 5916 5917 5917 5916 5915 5915 5914 5914 5913 5912 5911 5910 5909 5910 5910 5910 5909 5908 5907 5906 5905 5903 5903 5903 5904 5903 5901 5900 5899 5897 5896 5895 5893 5891 5889 5888 5887 5886 5885 5884 5883 5881 5879 5877 5875 5873 5871 5870 5870 5871 5872 5874 5875 5877 5878 5880 5882 5883 5884 5885 5887 5888 5890 5892 5894 5895 5896 5897 5898 5898 5899 5900 5900 5901 5902 5904 5905 5906 5907 5908 5909 5911 5912 5913 5915 5916 5916 5917 5918 5919 5920 5921
5914 5916 5916 5916 5916 5916 5916 5915 5914 5914 5913 5912 5912 5912 5912 5911 5910 5909 5909 5910 5910 5909 5907 5906 5905 5903 5902 5901 5901 5902 5902 5900 5898 5897 5896 5895 5894 5893 5891 5889 5888 5887 5886 5884 5883 5882 5880 5878 5876 5874 5873 5871 5869 5868 5868 5869 5871 5873 5874 5876 5877 5879 5881 5882 5883 5884 5886 5887 5889 5891 5892 5894 5895 5896 5897 5897 5898 5899 5899 5900 5902 5903 5904 5905 5906 5907 5908 5910 5911 5913 5914 5915 5915 5916 5917 5918 5919
5911 5913 5914 5914 5915 5914 5914 5913 5912 5912 5912 5911 5910 5910 5911 5911 5910 5909 5909 5909 5908 5907 5906 5905 5904 5902 5901 5899 5899 5900 5901 5900 5898 5896 5895 5895 5894 5893 5891 5889 5887 5886 5885 5884 5882 5880 5879 5877 5875 5874 5873 5872 5870 5869 5868 5868 5869 5871 5872 5874 5875 5877 5878 5880 5881 5882 5883 5885 5886 5887 5889 5891 5892 5894 5894 5895 5896 5897 5897 5898 5899 5901 5902 5903 5904 5904 5905 5906 5908 5910 5911 5912 5913 5913 5914 5915 5916
5910 5911 5911 5911 5912 5911 5911 5912 5910 5910 5910 5909 5908 5909 5909 5909 5909 5908 5908 5907 5906 5905 5904 5904 5904 5902 5899 5897 5897 5898 5899 5898 5897 5896 5895 5894 5893 5891 5890 5888 5887 5886 5884 5883 5882 5880 5878 5877 5875 5873 5873 5872 5872 5871 5869 5868 5868 5869 5870 5872 5873 5874 5876 5877 5879 5880 5881 5882 5883 5884 5886 5888 5890 5891 5892 5893 5894 5894 5895 5896 5897 5898 5900 5900 5901 5902 5902 5903 5905 5907 5908 5909 5910 5911 5911 5912 5913
5909 5910 5910 5910 5909 5909 5909 5908 5907 5906 5907 5907 5906 5907 5907 5907 5906 5906 5906 5905 5904 5903 5903 5903 5903 5900 5897 5895 5895 5896 5897 5897 5896 5896 5895 5893 5891 5889 5888 5887 5887 5886 5884 5883 5882 5880 5879 5877 5876 5874 5873 5872 5873 5872 5871 5869 5868 5868 5869 5869 5870 5872 5873 5875 5876 5877 5879 5880 5881 5882 5883 5885 5887 5888 5890 5891 5892 5892 5893 5894 5895 5896 5897 5898 5899 5900 5900 5900 5902 5903 5905 5906 5908 5909 5909 5910 5911